St. George, AK

12:36 AM AKDT on August 24, 2017 (GMT -0800)
Saint George

Weather History for PAPB - August, 2013

Change the Weather History Date:

Friday, August 23, 2013

  Actual Average Record
Temperature  
Mean Temperature 50 °F -  
Max Temperature 52 °F 50 °F 55 °F (2014)
Min Temperature 48 °F 44 °F 39 °F (2012)
Degree Days  
Heating Degree Days 16    
Moisture  
Dew Point 49 °F    
Average Humidity 100    
Maximum Humidity 100    
Minimum Humidity 93    
Precipitation  
Precipitation 0.21 in - - ()
Sea Level Pressure  
Sea Level Pressure 29.94 in    
Wind  
Wind Speed 3 mph (West)    
Max Wind Speed 9 mph    
Max Gust Speed -    
Visibility 1 miles    
Events Fog , Rain    
Averages and records for this station are not official NWS values.
T = Trace of Precipitation, MM = Missing Value Source: NWS Daily Summary

Daily Weather History Graph

Daily Weather History Graph

Search for Another Location

Airport or City:

Trip Planner

Search our weather history database for the weather conditions in past years. The results will help you decide how hot, cold, wet, or windy it might be!

Date:

Astronomy

Aug. 23, 2013 Rise Set
Actual Time 8:04 AM AKDT 10:36 PM AKDT
Civil Twilight 7:22 AM AKDT 11:17 PM AKDT
Nautical Twilight 6:27 AM AKDT 12:12 AM AKDT
Astronomical Twilight 5:17 AM AKDT 1:20 AM AKDT
Moon 11:09 PM AKDT (8/23) 12:02 PM AKDT (8/23)
Length of Visible Light 15h 55m
Length of Day
14h 31m
Waning Gibbous, 90% of the Moon is Illuminated
Aug 23
Waning Gibbous
Aug 28
Last Quarter
Sep 5
New
Sep 12
First Quarter
Sep 19
Full

Hourly Weather History & Observations

Time (AKDT) Temp. Dew Point Humidity Pressure Visibility Wind Dir Wind Speed Gust Speed Precip Events Conditions
12:05 AM 48.2 °F 48.2 °F 100% 29.99 in 0.8 mi Calm Calm - 0.01 in Rain Light Rain
12:24 AM 48.2 °F 48.2 °F 100% 30.00 in 1.0 mi West 3.5 mph - 0.02 in Rain Light Rain
12:40 AM 48.2 °F 48.2 °F 100% 29.99 in 0.8 mi West 6.9 mph - 0.02 in Rain Light Rain
12:53 AM 48.9 °F 48.9 °F 100% 29.95 in 0.5 mi WSW 5.8 mph - 0.03 in Fog , Rain Light Rain
1:30 AM 48.2 °F 48.2 °F 100% 29.99 in 1.0 mi West 4.6 mph - 0.04 in Rain Light Rain
1:44 AM 48.2 °F 48.2 °F 100% 29.98 in 0.5 mi Calm Calm - 0.05 in Fog , Rain Light Rain
1:53 AM 48.9 °F 48.9 °F 100% 29.95 in 0.5 mi West 4.6 mph - 0.05 in Fog Fog
2:53 AM 48.9 °F 48.9 °F 100% 29.94 in 0.2 mi Calm Calm - N/A Fog Fog
3:53 AM 48.9 °F 48.9 °F 100% 29.94 in 0.5 mi WSW 5.8 mph - 0.03 in Fog Fog
4:53 AM 48.9 °F 48.9 °F 100% 29.93 in 0.5 mi WSW 3.5 mph - 0.01 in Fog , Rain Light Rain
5:53 AM 48.9 °F 48.9 °F 100% 29.92 in 0.5 mi WSW 3.5 mph - 0.03 in Fog Fog
6:53 AM 48.0 °F 48.0 °F 100% 29.91 in 0.2 mi Calm Calm - 0.00 in Fog Fog
7:53 AM 48.0 °F 48.0 °F 100% 29.91 in 0.2 mi Calm Calm - 0.00 in Fog Fog
8:53 AM 48.0 °F 48.0 °F 100% 29.91 in 0.8 mi Calm Calm - 0.02 in Rain Light Rain
9:53 AM 48.9 °F 48.9 °F 100% 29.90 in 0.2 mi West 4.6 mph - 0.01 in Fog Fog
10:53 AM 48.0 °F 48.0 °F 100% 29.91 in 0.2 mi WSW 5.8 mph - 0.01 in Fog Fog
11:53 AM 48.0 °F 48.0 °F 100% 29.91 in 0.2 mi West 3.5 mph - N/A Fog Fog
12:53 PM 48.9 °F 48.9 °F 100% 29.91 in 0.2 mi West 3.5 mph - 0.02 in Fog Fog
1:53 PM 48.9 °F 48.9 °F 100% 29.90 in 0.2 mi West 9.2 mph - N/A Fog Fog
2:53 PM 50.0 °F 50.0 °F 100% 29.91 in 0.2 mi West 8.1 mph - N/A Fog Fog
3:53 PM 48.9 °F 48.9 °F 100% 29.91 in 0.2 mi West 6.9 mph - N/A Fog Fog
4:53 PM 48.9 °F 48.9 °F 100% 29.91 in 0.2 mi West 6.9 mph - N/A Fog Fog
5:12 PM 48.2 °F 48.2 °F 100% 29.95 in 0.2 mi West 6.9 mph - N/A Fog Fog
5:53 PM 48.0 °F 48.0 °F 100% 29.92 in 0.5 mi WSW 6.9 mph - N/A Fog Fog
6:05 PM 48.2 °F 48.2 °F 100% 29.95 in 0.2 mi WSW 6.9 mph - N/A Fog Fog
6:53 PM 48.0 °F 48.0 °F 100% 29.91 in 0.2 mi West 5.8 mph - N/A Fog Fog
7:03 PM 48.2 °F 48.2 °F 100% 29.95 in 0.2 mi West 5.8 mph - N/A Fog Fog
7:53 PM 48.0 °F 48.0 °F 100% 29.92 in 0.2 mi Calm Calm - N/A Fog Fog
8:50 PM 50.0 °F 50.0 °F 100% 29.95 in 1.2 mi ENE 3.5 mph - N/A   Overcast
8:53 PM 50.0 °F 50.0 °F 100% 29.91 in 1.8 mi ENE 3.5 mph - N/A   Overcast
9:00 PM 51.8 °F 50.0 °F 94% 29.95 in 3.0 mi ENE 4.6 mph - N/A   Overcast
9:29 PM 51.8 °F 51.8 °F 100% 29.95 in 9.0 mi Calm Calm - N/A   Overcast
9:44 PM 48.2 °F 48.2 °F 100% 29.96 in 1.5 mi West 5.8 mph - N/A   Overcast
9:47 PM 48.2 °F 48.2 °F 100% 29.96 in 0.8 mi West 5.8 mph - N/A   Overcast
9:53 PM 48.0 °F 48.0 °F 100% 29.92 in 0.2 mi West 4.6 mph - N/A Fog Fog
10:01 PM 48.2 °F 48.2 °F 100% 29.96 in 0.5 mi Calm Calm - N/A Fog Fog
10:40 PM 48.2 °F 48.2 °F 100% 29.97 in 1.2 mi Calm Calm - N/A   Overcast
10:49 PM 48.2 °F 48.2 °F 100% 29.97 in 3.0 mi Calm Calm - N/A   Overcast
10:50 PM 48.0 °F 48.0 °F 100% 29.93 in 3.0 mi Calm Calm - N/A   Overcast
11:28 PM 48.2 °F 48.2 °F 100% 29.98 in 6.0 mi Calm Calm - N/A   Overcast
11:48 PM 48.2 °F 46.4 °F 93% 29.98 in 1.8 mi Calm Calm - N/A   Overcast
11:53 PM 48.0 °F 46.9 °F 96% 29.94 in 1.0 mi Calm Calm - N/A   Overcast